www.pogodaiklimat.ru

Погода и климат >> Архив погоды >> Таиланд >> Lop Buri


ПОГОДА в Lop Buri

  • Прогноз погоды в Lop Buri
  • Монитор погоды в Lop Buri
  • Климат города

АРХИВ ПОГОДЫ в Lop Buri

Время (UTC), дата Ветер
(напр.,м/с)
 
Видим.   Явления Облачность Т
(С)
Тd
(С)
f
(%)
Тe
(С)
Тes
(С)
Комфортность P
(гПа)
Po
(гПа)
Тmin
(С)
Tmax
(С)
R
(мм)
S
(см)
09 17.02 СВ 3 9000 м мгла 3/0
[Cs]
+35.3 +13.1 26 +36 +40 очень
жарко
1010.8 1009.5
12 17.02 штиль 0 8000 м мгла 3/0
[Cs]
+31.0 +14.7 37 +33 +33 душно 1012.2 1010.9 +35.5
15 17.02 штиль 0 8000 м мгла 3/0
[Cs]
+25.8 +17.7 61 +30 +30 душно 1014.3 1013.0
18 17.02 штиль 0 7000 м дымка 3/0
[Cs]
+23.0 +16.8 68 +28 +28 душно 1014.7 1013.4
21 17.02 штиль 0 7000 м мгла 3/0
[Cs]
+21.8 +14.5 63 +25 +25 комфорт 1013.6 1012.2
00 18.02 штиль 0 8000 м дымка 3/0
[Cs]
+20.0 +14.9 72 +22 +22 комфорт 1015.0 1013.6 +19.7
03 18.02 СВ 3 8000 м мгла 3/0
[Cs]
+30.1 +14.5 39 +32 +42 жарко 1017.1 1015.7
06 18.02 В 2 8000 м мгла 3/0
[Cs]
+34.6 +13.4 28 +35 +52 опасность
солнечного
удара
1014.6 1013.3
09 18.02 С 3 8000 м мгла 3/0
[Cs]
+35.5 +13.6 27 +36 +40 очень
жарко
1011.9 1010.6
12 18.02 штиль 0 8000 м мгла 3/0
[Cs]
+30.0 +16.2 43 +33 +33 душно 1013.0 1011.7 +36.2
15 18.02 штиль 0 7000 м мгла 3/0
[Cs]
+26.5 +15.3 50 +29 +29 жарко 1014.3 1013.0
18 18.02 штиль 0 7000 м мгла 3/0
[Cs]
+24.8 +17.2 63 +29 +29 душно 1014.0 1012.7
21 18.02 штиль 0 7000 м дымка 3/0
[Cs]
+22.2 +16.8 71 +27 +27 душно 1012.6 1011.3
00 19.02 В 3 7000 м мгла 4/0
[Cs]
+23.6 +13.0 51 +26 +26 жарко 1013.8 1012.5 +21.3
03 19.02 ЮВ 3 9000 м мгла 4/0
[Cs]
+30.6 +15.4 40 +33 +42 душно 1015.6 1014.3
06 19.02 В 2 12 км 4/0
[Cs]
+34.6 +14.3 30 +36 +52 опасность
солнечного
удара
1011.8 1010.5
09 19.02 З 2 12 км 4/0
[Cs]
+35.5 +15.5 30 +37 +42 душно 1008.9 1007.7
12 19.02 штиль 0 8000 м мгла 3/0
[Cs]
+29.8 +17.9 49 +34 +34 очень
душно
1009.3 1008.0 +36.1
15 19.02 штиль 0 8000 м мгла ясно +26.4 +17.7 59 +31 +31 душно 1010.4 1009.1
18 19.02 штиль 0 7000 м дымка ясно +24.1 +18.7 72 +29 +29 душно 1009.8 1008.5
21 19.02 штиль 0 7000 м дымка 3/0
[Cs]
+22.9 +19.8 83 +30 +30 очень
душно
1009.7 1008.3
00 20.02 штиль 0 4000 м дымка 5/0
[Cs]
+22.6 +18.5 78 +28 +29 душно 1010.8 1009.5 +22.5
03 20.02 ЮВ 1 7000 м мгла 5/0
[Cs]
+30.5 +19.9 53 +37 +49 очень
душно
1012.1 1010.8
06 20.02 ЮВ 2 12 км 3/0
[Cs]
+34.1 +18.7 40 +39 +55 опасность
солнечного
удара
1009.4 1008.1
09 20.02 ЮВ 2 9000 м мгла 4/0
[Cs]
+35.0 +18.7 38 +39 +44 очень
душно
1006.9 1005.6
12 20.02 штиль 0 8000 м мгла 4/0
[Cs]
+30.5 +20.9 57 +38 +38 очень
душно
1006.9 1005.6 +35.4
15 20.02 штиль 0 8000 м дымка 3/0
[Cs]
+27.1 +20.9 69 +34 +34 очень
душно
1008.9 1007.6
18 20.02 штиль 0 7000 м дымка 3/0
[Cs]
+25.4 +21.0 77 +32 +32 очень
душно
1010.0 1008.6
21 20.02 штиль 0 7000 м дымка 4/0
[Cs]
+24.5 +21.5 83 +31 +31 очень
душно
1009.6 1008.3
00 21.02 штиль 0 4000 м дымка 8/0
[Cs]
+24.1 +22.8 92 +32 +32 очень
душно
1011.6 1010.3 +23.9
03 21.02 Ю 3 8000 м дымка 3/0
[Cs]
+29.9 +24.3 72 +42 +51 опасность
перегрева
1013.5 1012.2
06 21.02 Ю 2 8000 м мгла 3/1 600 м
[Cu hum Cs]
+35.0 +19.1 39 +40 +55 опасность
солнечного
удара
1011.1 1009.9
09 21.02 Ю 4 8000 м мгла 3/1 600 м
[Cu hum Cs]
+35.5 +19.8 40 +41 +44 опасность
перегрева
1008.4 1007.1
12 21.02 штиль 0 8000 м мгла 3/0
[Cs]
+30.7 +21.2 57 +38 +38 очень
душно
1008.8 1007.5 +36.2
15 21.02 штиль 0 7000 м дымка 3/0
[Cs]
+27.3 +21.5 71 +35 +35 очень
душно
1010.4 1009.1
18 21.02 штиль 0 7000 м дымка 3/0
[Cs]
+25.2 +21.4 79 +32 +32 очень
душно
1010.9 1009.6
21 21.02 Ю 1 7000 м дымка 9/4 600 м
[Sc Ac und Cs]
+24.5 +22.3 88 +32 +32 очень
душно
1010.5 1009.2
00 22.02 штиль 0 4000 м дымка 8/1 600 м
[Sc As op Cs]
+24.1 +22.8 92 +32 +32 очень
душно
1011.6 1010.3 +23.9
03 22.02 ЮЗ 3 8000 м дымка 8/0
[Cs]
+29.5 +23.7 71 +40 +49 очень
душно
1012.8 1011.5
06 22.02 ЮЗ 1 10 км 6/0
[Cs]
+34.1 +22.6 51 +43 +62 опасность
перегрева
1010.9 1009.6
09 22.02 Ю 2 10 км 6/3 600 м
[Cu med, cong As op Cs]
+35.1 +21.4 45 +43 +46 опасность
перегрева
1008.6 1007.3
12 22.02 штиль 0 8000 м мгла 8/1 600 м
[Cu med, cong Ac lent Cs]
+31.1 +23.0 62 +41 +41 опасность
перегрева
1009.5 1008.2 +36.0
15 22.02 штиль 0 7000 м дымка 3/0
[Cs]
+28.3 +23.2 74 +38 +38 очень
душно
1011.4 1010.1
18 22.02 Ю 2 7000 м дымка 3/0
[Cs]
+27.0 +22.6 77 +36 +36 очень
душно
1011.2 1009.8
21 22.02 штиль 0 7000 м дымка 3/0
[Cs]
+25.5 +23.0 86 +34 +34 очень
душно
1010.1 1008.8
00 23.02 Ю 1 6000 м дымка 5/0
[Ac lent Cs]
+25.4 +23.6 90 +35 +35 очень
душно
1011.7 1010.3 +25.0
03 23.02 Ю 2 8000 м дымка 4/0
[As op Cs]
+31.0 +24.9 70 +44 +53 опасность
перегрева
1013.6 1012.3
06 23.02 ЮЗ 2 9000 м мгла 5/4 600 м
[Cu med, cong Ac lent Cs]
+35.3 +21.7 45 +43 +53 опасность
перегрева
1011.3 1010.0
09 23.02 ЮЗ 3 9000 м мгла 4/3 600 м
[Cu med, cong As op Cs]
+36.0 +21.3 43 +44 +47 опасность
перегрева
1008.2 1006.9
12 23.02 Ю 1 8000 м мгла 3/0
[As op Cs]
+32.1 +23.6 61 +43 +43 опасность
перегрева
1009.3 1008.0 +36.8
15 23.02 Ю 1 8000 м дымка 3/0
[Cs]
+29.5 +23.2 69 +40 +40 очень
душно
1011.3 1010.0
18 23.02 Ю 1 7000 м дымка 3/0
[Cs]
+27.0 +23.0 79 +36 +36 очень
душно
1012.3 1011.0
21 23.02 Ю 1 7000 м дымка 8/8 600 м
[St Ac lent Cs]
+26.0 +23.7 87 +35 +35 очень
душно
1011.5 1010.1
00 24.02 ЮВ 1 7000 м дымка 5/1 600 м
[Sc As op Cs]
+25.7 +23.5 88 +35 +35 очень
душно
1012.2 1010.9 +25.5
03 24.02 Ю 5 8000 м дымка 6/3 600 м
[Cu med, cong As op Cs]
+30.7 +24.1 68 +43 +46 опасность
перегрева
1014.1 1012.8

 

Местоположение метеостанции Lop Buri (Таиланд): широта 14.80 долгота 100.61 высота над уровнем моря 11 м.

В архиве по умолчанию представлена погода в Lop Buri за последнюю неделю. Архивные данные за месяц целиком и за предыдущие месяцы, начиная с января 2011 года, Вы можете получить, выбрав интересующий диапазон дат из раскрывающегося списка и нажав кнопку "Ввод!".

Внимание! Время в таблицах - всемирное. Для получения местного времени необходимо прибавить поправку, которая в Lop Buri равна 7 ч.

Смотрите также архив погоды в соседних городах и на ближайших метеорологических станциях:

Погода в Ayutthaya (Таиланд) (33 км)
Погода в Laemchabang (Таиланд) (43 км)
Погода в Saraburi (Таиланд) (46 км)
Погода в Chainat Agromet (Таиланд) (60 км)
Погода в Takfa Agromet (Таиланд) (62 км)
Погода в Suphan Buri (Таиланд) (63 км)
Погода в Pathumthani (Таиланд) (78 км)
Погода в Pakchong Agromet (Таиланд) (79 км)
Погода в Bua Chum (Таиланд) (81 км)
Погода в Uthai Thani (Таиланд) (89 км)

Пояснения к столбцам:

Ветер - указаны скорость ветра в м/с - средняя за 10 мин, порывы в срок и между сроками (в фигурных скобках) и направление, откуда дует ветер: С - северный, СВ - северо-восточный, В - восточный, ЮВ - юго-восточный, Ю - южный, ЮЗ - юго-западный, З - западный, СЗ - северо-западный.
Видимость - горизонтальная дальность видимости в метрах или километрах. При видимости от 1 до 10 км при отсутствии осадков обычно наблюдается дымка, при ухудшении видимости до 1 км и менее - туман. В сухую погоду видимость может ухудшаться дымом, пылью или мглою.
Явления - указаны атмосферные явления, наблюдавшиеся в срок или в последний час перед сроком; фигурными скобками обозначены явления, наблюдавшиеся между сроками (за 1-3 часа до срока); квадратными скобками обозначены град или гололедные отложения с указанием их диаметра в мм.
Облачность - указаны через наклонную черту общая и нижняя облачность в баллах и высота нижней границы облаков в метрах; квадратными скобками обозначены формы облаков: Ci - перистые, Cs - перисто-слоистые, Cc - перисто-кучевые, Ac - высококучевые, As - высокослоистые, Sc - слоисто-кучевые, Ns - слоисто-дождевые, Cu - кучевые, Cb - кучево-дождевые. Подробнее классификацию облаков см. в Атласе облаков (PDF).
T - Температура воздуха - температура, измеренная на высоте 2 м над землей.
Td - Температура точки росы - температура, при понижении до которой содержащийся в воздухе водяной пар достигнет насыщения.
f - Относительная влажность воздуха - влажноcть воздуха, измеренная на высоте 2 м над землей.
Te - Эффективная температура - температура, которую ощущает одетый по сезону человек в тени. Характеристика душности погоды. При расчете учитывается влияние влажности воздуха и скорости ветра на теплоощущения человека.
Tes - Эффективная температура на солнце - температура, которую ощущает человек, с поправкой на солнечный нагрев. Характеристика знойности погоды. Зависит от высоты солнца над горизонтом, облачности и скорости ветра. Ночью, в пасмурную погоду, а также при ветре 12 м/с и более поправка равна нулю.
P - Атмосферное давление - приведенное к уровню моря атмосферное давление.
Po - Атмосферное давление - измеренное на уровне метеостанции атмосферное давление.
Tmin - Минимальная температура - минимум температуры воздуха на высоте 2 м над землей.
Tmax - Максимальная температура - максимум температуры воздуха на высоте 2 м над землей.
R - Количество осадков - Количество выпавших осадков, мм. При наведении курсора мыши на число - период времени, за который выпало указанное количество осадков.
S - Снежный покров - Высота снежного покрова, см. При наведении курсора мыши на число - состояние снежного покрова и степень покрытия местности в баллах.